[[{"header":{"parameterUnit":"m.s-1","parameterCategory":1,"la1":30.2991,"la2":30.254,"lo1":-89.0895,"lo2":-89.0444,"dy":0.0017,"dx":0.0017,"nx":28,"ny":28,"refTime":"2025-04-11T21:00:00:Z","depth":0,"parameterNumber":2,"parameterNumberName":"U-component_of_WINDS"},"data":[0,0,0,0,0,0,0,0,0,0,0,0,0,0,0,0,0,0,0,0,0,0,0,0,0,0,0,0,0,0,0,0,0,0,0,0,0,0,0,0,0,0,0,0,0,0,0,0,0,0,0,0,0,0,0,0,0,0,-1.4883,-1.4883,0,-1.4889,-1.4889,-1.4889,-1.4808,-1.4806,-1.4803,-1.4801,-1.481,-1.4812,-1.4814,0,0,0,0,0,0,0,0,0,0,0,0,0,-1.4802,-1.4804,-1.4883,-1.4883,-1.4883,-1.4889,-1.4889,-1.4889,-1.4808,-1.4805,-1.4803,-1.48,-1.4809,-1.4812,-1.4814,0,0,0,0,0,0,0,0,0,0,0,0,0,-1.4826,-1.4805,-1.4883,-1.4843,-1.484,-1.4889,-1.4889,-1.4889,-1.4809,-1.4805,-1.4802,-1.4799,-1.4808,-1.4811,-1.4815,-1.4903,0,0,-1.4825,-1.4827,0,0,0,0,0,0,0,0,-1.4825,-1.4829,-1.4849,-1.4846,-1.4842,-1.4844,-1.4864,-1.4894,-1.481,-1.4821,-1.4801,-1.4797,-1.4824,-1.4826,-1.4834,-1.4903,-1.4903,-1.4825,-1.4828,-1.4829,-1.483,0,0,0,0,0,0,0,-1.4823,-1.4828,-1.4885,-1.4849,-1.4845,-1.4826,-1.4825,-1.4869,-1.4841,-1.4819,-1.4813,-1.4815,-1.4821,-1.4831,-1.4834,-1.4904,-1.4825,-1.4828,-1.4831,-1.4832,-1.5044,-1.5047,0,0,0,0,0,0,-1.4827,-1.4827,-1.4885,-1.4885,-1.4825,-1.483,-1.4829,-1.4847,-1.484,-1.4836,-1.4818,-1.4811,-1.4827,-1.483,-1.4834,-1.4936,-1.4829,-1.4832,-1.4834,-1.504,-1.5045,-1.5048,0,0,0,0,0,0,-1.4825,-1.4832,-1.4885,-1.4855,-1.486,-1.4835,-1.4855,-1.4849,-1.4858,-1.4839,-1.4834,-1.4833,-1.4824,-1.4829,-1.4886,-1.4935,-1.4834,-1.4837,-1.5036,-1.5042,-1.5046,-1.5141,0,0,0,0,0,0,-1.4823,-1.4832,-1.4865,-1.4856,-1.4862,-1.4937,-1.4858,-1.4851,-1.4864,-1.4856,-1.4852,-1.4848,-1.4822,-1.4881,-1.4889,-1.4938,-1.484,-1.5031,-1.5038,-1.5045,-1.5134,-1.5149,-1.5163,0,0,0,0,0,-1.4821,-1.4893,-1.4868,-1.4875,-1.4903,-1.494,-1.4943,-1.4911,-1.4869,-1.4902,-1.4889,-1.4848,-1.4928,-1.4888,-1.4896,-1.4947,-1.5028,-1.5036,-1.5044,-1.5127,-1.5146,-1.5162,0,0,0,0,0,0,-1.491,-1.4891,-1.4863,-1.4934,-1.4939,-1.4926,-1.4967,-1.4932,-1.495,-1.4941,-1.4901,-1.4901,-1.4965,-1.4961,-1.4916,-1.5031,-1.4971,-1.4981,-1.5031,-1.5049,-1.5063,-1.5063,-1.4842,0,0,0,0,0,-1.4937,-1.4968,-1.495,-1.5015,-1.5019,-1.4993,-1.5008,-1.4982,-1.4986,-1.4988,-1.498,-1.4986,-1.5012,-1.503,-1.5053,-1.5132,-1.513,-1.5171,-1.5186,-1.5198,-1.5207,-1.5248,-1.5266,-1.5075,-1.5075,-1.5074,0,0,-1.4995,-1.4989,-1.5011,-1.5033,-1.5034,-1.5067,-1.4995,-1.5034,-1.5058,-1.4994,-1.5047,-1.5041,-1.5045,-1.5113,-1.5143,-1.5112,-1.5259,-1.5208,-1.5218,-1.522,-1.5258,-1.5276,-1.5293,-1.508,-1.5079,-1.5078,0,0,-1.5118,-1.5116,-1.5169,-1.5171,-1.5173,-1.5155,-1.5168,-1.516,-1.5153,-1.5205,-1.5158,-1.5186,-1.5233,-1.5237,-1.5245,-1.5369,-1.5332,-1.5377,-1.5453,-1.5493,-1.5508,-1.5522,-1.5565,-1.5581,-1.5387,-1.5387,-1.5387,0,-1.519,-1.5238,-1.5201,-1.5243,-1.5253,-1.5196,-1.5249,-1.5253,-1.5264,-1.5272,-1.5238,-1.5294,-1.5292,-1.5361,-1.539,-1.5399,-1.5413,-1.5378,-1.5509,-1.5522,-1.5534,-1.5575,-1.5591,-1.5392,-1.5392,-1.5391,-1.5391,0,-1.5326,-1.536,-1.5403,-1.5413,-1.5428,-1.5476,-1.5446,-1.5467,-1.544,-1.5425,-1.5479,-1.5475,-1.5496,-1.551,-1.5485,-1.5575,-1.5556,-1.5516,-1.5455,-1.5558,-1.5596,-1.5612,-1.54,-1.5398,-1.5397,-1.5395,0,0,-1.5506,-1.5494,-1.551,-1.5513,-1.5511,-1.5537,-1.5581,-1.5601,-1.5619,-1.5627,-1.5664,-1.5704,-1.5666,-1.5676,-1.5651,-1.5686,-1.5783,-1.5642,-1.5641,-1.5668,-1.5882,-1.5911,-1.593,-1.5759,-1.5761,-1.5764,-1.5881,0,-1.5625,-1.57,-1.5668,-1.5746,-1.5777,-1.5722,-1.5761,-1.5764,-1.5751,-1.5776,-1.5762,-1.5791,-1.574,-1.5745,-1.5778,-1.5765,-1.5826,-1.5756,-1.5792,-1.5794,-1.5793,-1.595,-1.5982,-1.6093,-1.5896,-1.5898,-1.59,0,-1.5774,-1.5788,-1.5869,-1.5859,-1.5871,-1.5907,-1.5921,-1.5946,-1.5947,-1.5936,-1.5946,-1.5912,-1.5955,-1.5894,-1.5953,-1.5907,-1.5919,-1.5915,-1.5919,-1.5921,-1.5853,-1.5957,-1.6128,-1.6144,-1.5923,-1.5921,-1.592,0,-1.5897,-1.5935,-1.5988,-1.5993,-1.5984,-1.601,-1.6007,-1.6006,-1.6019,-1.6032,-1.6041,-1.6059,-1.607,-1.6085,-1.6057,-1.6015,-1.612,-1.6057,-1.6111,-1.6112,-1.6136,-1.6135,-1.6312,-1.6145,-1.6145,-1.6144,-1.6144,0,-1.6033,-1.6085,-1.6043,-1.6076,-1.6132,-1.6095,-1.6151,-1.6143,-1.6142,-1.6172,-1.6126,-1.6156,-1.6117,-1.6143,-1.6122,-1.6174,-1.6179,-1.6171,-1.6164,-1.6175,-1.6176,-1.6183,-1.6174,-1.6149,-1.6148,-1.6147,-1.6146,0,-1.618,-1.6154,-1.6208,-1.6194,-1.6192,-1.6234,-1.6222,-1.6252,-1.6236,-1.6275,-1.6282,-1.6257,-1.6285,-1.6259,-1.6286,-1.6271,-1.634,-1.6323,-1.6339,-1.6334,-1.6391,-1.6386,-1.6578,-1.6601,-1.642,-1.6422,-1.6423,0,-1.6268,-1.6306,-1.6296,-1.6313,-1.6313,-1.634,-1.6353,-1.6318,-1.6334,-1.6338,-1.6367,-1.6391,-1.6408,-1.6456,-1.644,-1.646,-1.6443,-1.6509,-1.6446,-1.6455,-1.6443,-1.6441,-1.6445,-1.6522,-1.6524,-1.6526,-1.6527,0,-1.6428,-1.6413,-1.6433,-1.6449,-1.6466,-1.6477,-1.6485,-1.6501,-1.6464,-1.6484,-1.6511,-1.6525,-1.6551,-1.6576,-1.6591,-1.6588,-1.6552,-1.6547,-1.6561,-1.6572,-1.6579,-1.6575,-1.6374,-1.6543,-1.6541,-1.654,-1.6539,-1.6539,-1.6548,-1.6579,-1.6576,-1.66,-1.6602,-1.661,-1.6637,-1.6623,-1.6645,-1.6664,-1.6642,-1.6675,-1.6675,-1.6692,-1.6694,-1.6719,-1.6692,-1.6712,-1.6717,-1.6722,-1.673,-1.6575,-1.6722,-1.6722,-1.6721,-1.6721,-1.6721,0,-1.6705,-1.67,-1.6722,-1.6734,-1.6753,-1.6715,-1.6722,-1.674,-1.677,-1.6773,-1.679,-1.6821,-1.6844,-1.6831,-1.685,-1.6874,-1.6857,-1.688,-1.6878,-1.6878,-1.6754,-1.674,-1.6893,-1.6893,-1.6893,-1.6893,-1.6893,-1.6893,-1.6788,-1.6839,-1.6823,-1.6874,-1.6869,-1.6901,-1.6907,-1.6914,-1.6916,-1.6953,-1.6971,-1.6962,-1.6958,-1.6976,-1.6996,-1.6991,-1.7,-1.7029,-1.7018,-1.6903,-1.6886,-1.687,-1.6857,-1.7031,-1.7032,-1.7139,-1.7141,-1.7141]},{"header":{"parameterUnit":"m.s-1","parameterCategory":1,"la1":30.2991,"la2":30.254,"lo1":-89.0895,"lo2":-89.0444,"dy":0.0017,"dx":0.0017,"nx":28,"ny":28,"refTime":"2025-04-11T21:00:00:Z","depth":0,"parameterNumber":3,"parameterNumberName":"V-component_of_WINDS"},"data":[0,0,0,0,0,0,0,0,0,0,0,0,0,0,0,0,0,0,0,0,0,0,0,0,0,0,0,0,0,0,0,0,0,0,0,0,0,0,0,0,0,0,0,0,0,0,0,0,0,0,0,0,0,0,0,0,0,0,-2.4672,-2.4673,0,-2.4776,-2.4777,-2.4778,-2.4772,-2.4771,-2.4769,-2.4768,-2.4871,-2.4875,-2.4879,0,0,0,0,0,0,0,0,0,0,0,0,0,-2.4465,-2.4469,-2.4672,-2.4673,-2.4674,-2.4775,-2.4777,-2.4778,-2.4772,-2.4771,-2.4769,-2.4767,-2.487,-2.4874,-2.4879,0,0,0,0,0,0,0,0,0,0,0,0,0,-2.456,-2.447,-2.4671,-2.4684,-2.4686,-2.4775,-2.4777,-2.4779,-2.4773,-2.477,-2.4768,-2.4766,-2.4868,-2.4874,-2.488,-2.4963,0,0,-2.4899,-2.4902,0,0,0,0,0,0,0,0,-2.4555,-2.4568,-2.4681,-2.4683,-2.4686,-2.4759,-2.4742,-2.484,-2.4773,-2.474,-2.4768,-2.4765,-2.4835,-2.4844,-2.4868,-2.4968,-2.4972,-2.49,-2.4903,-2.4906,-2.4908,0,0,0,0,0,0,0,-2.4548,-2.4563,-2.4713,-2.4682,-2.4685,-2.4683,-2.4694,-2.476,-2.4799,-2.4742,-2.4742,-2.4755,-2.4836,-2.4862,-2.4871,-2.4974,-2.4899,-2.4905,-2.4909,-2.4911,-2.5146,-2.5148,0,0,0,0,0,0,-2.4539,-2.4558,-2.4709,-2.4716,-2.4613,-2.4688,-2.4701,-2.4737,-2.4798,-2.4805,-2.4757,-2.4754,-2.4853,-2.4863,-2.4874,-2.4975,-2.4906,-2.4912,-2.4915,-2.5143,-2.5146,-2.5149,0,0,0,0,0,0,-2.4535,-2.4553,-2.4705,-2.4637,-2.4656,-2.4694,-2.4735,-2.4741,-2.4767,-2.4809,-2.4815,-2.4777,-2.4851,-2.4865,-2.4941,-2.4978,-2.4915,-2.492,-2.514,-2.5144,-2.5148,-2.5177,0,0,0,0,0,0,-2.4529,-2.4551,-2.4584,-2.4638,-2.466,-2.4772,-2.4738,-2.4744,-2.4778,-2.4776,-2.4829,-2.4836,-2.4851,-2.4932,-2.4947,-2.4986,-2.4925,-2.5137,-2.5142,-2.5147,-2.5173,-2.5182,-2.5189,0,0,0,0,0,-2.4522,-2.4588,-2.4586,-2.4604,-2.4702,-2.4774,-2.4786,-2.4803,-2.4781,-2.4814,-2.484,-2.4834,-2.4972,-2.494,-2.4957,-2.4998,-2.5135,-2.5141,-2.5146,-2.517,-2.518,-2.5189,0,0,0,0,0,0,-2.4537,-2.4595,-2.4594,-2.4679,-2.4722,-2.4773,-2.4815,-2.4814,-2.4862,-2.4858,-2.4876,-2.4888,-2.4964,-2.4988,-2.4951,-2.5081,-2.505,-2.506,-2.5062,-2.5072,-2.508,-2.5072,-2.493,0,0,0,0,0,-2.4551,-2.4605,-2.4653,-2.4724,-2.4745,-2.4776,-2.4808,-2.4818,-2.4862,-2.4879,-2.4911,-2.4954,-2.5006,-2.5041,-2.5092,-2.5177,-2.5187,-2.5213,-2.5221,-2.5227,-2.5235,-2.5281,-2.5292,-2.5168,-2.5168,-2.5168,0,0,-2.4579,-2.4617,-2.4651,-2.4728,-2.4762,-2.4817,-2.4791,-2.4851,-2.4891,-2.4888,-2.4962,-2.4987,-2.5035,-2.5115,-2.5152,-2.5138,-2.5272,-2.5234,-2.5239,-2.5244,-2.5288,-2.5299,-2.531,-2.5172,-2.5171,-2.517,0,0,-2.4658,-2.4694,-2.4756,-2.4791,-2.4843,-2.4863,-2.4878,-2.4929,-2.4946,-2.502,-2.5018,-2.5066,-2.5157,-2.5191,-2.522,-2.5312,-2.5308,-2.5328,-2.5369,-2.5413,-2.5423,-2.5432,-2.5464,-2.5475,-2.5336,-2.5336,-2.5336,0,-2.4687,-2.4771,-2.4788,-2.4849,-2.4882,-2.4882,-2.4945,-2.4977,-2.5043,-2.5065,-2.5049,-2.5162,-2.5194,-2.5282,-2.5305,-2.5329,-2.5345,-2.5322,-2.542,-2.5429,-2.5438,-2.5468,-2.5481,-2.5338,-2.5338,-2.5337,-2.5337,0,-2.4803,-2.4861,-2.4905,-2.4969,-2.5007,-2.5069,-2.5094,-2.5131,-2.5136,-2.5158,-2.5233,-2.5272,-2.533,-2.5352,-2.5357,-2.544,-2.543,-2.5417,-2.5386,-2.5452,-2.5481,-2.5493,-2.5341,-2.534,-2.5339,-2.5339,0,0,-2.4895,-2.4968,-2.4984,-2.5013,-2.507,-2.5114,-2.5175,-2.5233,-2.5263,-2.5308,-2.5358,-2.5435,-2.5423,-2.5456,-2.5466,-2.5505,-2.5574,-2.5487,-2.5488,-2.5501,-2.5667,-2.5676,-2.5689,-2.5571,-2.5574,-2.5576,-2.5662,0,-2.498,-2.5089,-2.5106,-2.5201,-2.5254,-2.5254,-2.5307,-2.5347,-2.5368,-2.5416,-2.5439,-2.5493,-2.5473,-2.5493,-2.5532,-2.5557,-2.5607,-2.5551,-2.5617,-2.562,-2.5605,-2.5705,-2.5715,-2.5795,-2.5674,-2.5676,-2.5677,0,-2.5094,-2.5143,-2.5243,-2.5292,-2.5315,-2.5362,-2.5416,-2.5462,-2.5507,-2.5519,-2.5556,-2.5561,-2.5622,-2.5589,-2.5674,-2.5635,-2.5663,-2.5679,-2.5683,-2.5689,-2.5652,-2.5713,-2.5821,-2.5832,-2.5695,-2.5694,-2.5693,0,-2.5151,-2.5241,-2.5313,-2.5338,-2.5397,-2.543,-2.5456,-2.5498,-2.5532,-2.5578,-2.56,-2.5653,-2.5682,-2.5722,-2.5741,-2.5715,-2.5823,-2.5792,-2.5835,-2.5834,-2.5857,-2.5855,-2.597,-2.5876,-2.5876,-2.5875,-2.5875,0,-2.5244,-2.5305,-2.5339,-2.5383,-2.5451,-2.547,-2.5536,-2.5561,-2.5599,-2.5647,-2.565,-2.5694,-2.5716,-2.5764,-2.5778,-2.5845,-2.5858,-2.5869,-2.5873,-2.5869,-2.5868,-2.5887,-2.5882,-2.5879,-2.5878,-2.5877,-2.5877,0,-2.5319,-2.5344,-2.5422,-2.5472,-2.5486,-2.5534,-2.5575,-2.5617,-2.5638,-2.5699,-2.5714,-2.5747,-2.5803,-2.5825,-2.5893,-2.5903,-2.598,-2.5979,-2.5965,-2.5966,-2.6007,-2.6003,-2.6138,-2.6156,-2.605,-2.6051,-2.6052,0,-2.5376,-2.5423,-2.5478,-2.5511,-2.5538,-2.5591,-2.5625,-2.5645,-2.568,-2.5734,-2.5769,-2.5825,-2.5871,-2.5961,-2.599,-2.6042,-2.6041,-2.6085,-2.6049,-2.6044,-2.6041,-2.6038,-2.6043,-2.6092,-2.6093,-2.6094,-2.6094,0,-2.5476,-2.5486,-2.5536,-2.559,-2.5631,-2.5674,-2.5716,-2.5743,-2.5768,-2.5808,-2.5865,-2.5901,-2.5971,-2.6026,-2.608,-2.6105,-2.6104,-2.6106,-2.6118,-2.6115,-2.6105,-2.611,-2.5983,-2.6102,-2.6102,-2.6101,-2.6101,-2.61,-2.5543,-2.5585,-2.563,-2.5685,-2.5719,-2.5758,-2.58,-2.5826,-2.5875,-2.5934,-2.5942,-2.6004,-2.6046,-2.6118,-2.6146,-2.6193,-2.6182,-2.62,-2.6204,-2.6208,-2.6211,-2.6098,-2.6203,-2.6203,-2.6203,-2.6202,-2.6202,0,-2.5642,-2.5671,-2.5722,-2.5781,-2.5824,-2.582,-2.5866,-2.5902,-2.5957,-2.5997,-2.6042,-2.6108,-2.6161,-2.6194,-2.6248,-2.6279,-2.628,-2.6293,-2.629,-2.6296,-2.6219,-2.6202,-2.6291,-2.6291,-2.6291,-2.6291,-2.6291,-2.6291,-2.5699,-2.5769,-2.5784,-2.5871,-2.5899,-2.596,-2.5986,-2.6022,-2.6054,-2.6128,-2.6173,-2.6194,-2.6231,-2.6287,-2.6335,-2.6344,-2.6363,-2.6376,-2.6383,-2.6311,-2.6301,-2.6293,-2.6277,-2.638,-2.6381,-2.6457,-2.6458,-2.6458]}]]